Weather History for Warsaw, IN

Change the Weather History Date:

Tuesday, November 15, 2011

  Actual Average Record
Temperature  
Mean Temperature 45 °F -  
Max Temperature 55 °F 48 °F 74 °F (1971)
Min Temperature 35 °F 32 °F 14 °F (2014)
Degree Days  
Heating Degree Days 20    
Moisture  
Dew Point 45 °F    
Average Humidity 78    
Maximum Humidity 100    
Minimum Humidity 63    
Precipitation  
Precipitation 0.00 in - - ()
Sea Level Pressure  
Sea Level Pressure 29.80 in    
Wind  
Wind Speed 2 mph (SSW)    
Max Wind Speed 10 mph    
Max Gust Speed 16 mph    
Visibility 6 miles    
Events Fog    
Averages and records for this station are not official NWS values.
T = Trace of Precipitation, MM = Missing Value Source: NWS Daily Summary

Daily Weather History Graph

Daily Weather History Graph

Search for Another Location

Airport:

Trip Planner

Search our weather history database for the weather conditions in past years. The results will help you decide how hot, cold, wet, or windy it might be!

Date:

Astronomy

Nov. 15, 2011 Rise Set
Actual Time 7:31 AM EST 5:24 PM EST
Civil Twilight 7:01 AM EST 5:53 PM EST
Nautical Twilight 6:28 AM EST 6:27 PM EST
Astronomical Twilight 5:55 AM EST 6:59 PM EST
Moon 9:32 PM EST (11/15) 11:30 AM EST (11/15)
Length of Visible Light 10h 52m
Length of Day
9h 53m
Waning Gibbous, 79% of the Moon is Illuminated
Nov 15
Waning Gibbous
Nov 18
Last Quarter
Nov 25
New
Dec 2
First Quarter
Dec 10
Full

Hourly Weather History & Observations

Time (EST) Temp. Windchill Dew Point Humidity Pressure Visibility Wind Dir Wind Speed Gust Speed Precip Events Conditions
12:15 AM 41.0 °F - - N/A% 29.75 in 2.0 mi Calm Calm - N/A   Clear
12:35 AM 41.0 °F - - N/A% 29.76 in 3.0 mi Calm Calm - N/A   Clear
12:55 AM 42.8 °F - - N/A% 29.76 in 4.0 mi Calm Calm - N/A   Haze
1:15 AM 41.0 °F - - N/A% 29.75 in 2.5 mi Calm Calm - N/A   Clear
1:55 AM 41.0 °F - - N/A% 29.76 in 1.8 mi Calm Calm - N/A   Mist
2:15 AM 41.0 °F - - N/A% 29.78 in 2.5 mi Calm Calm - N/A   Clear
2:35 AM 41.0 °F - - N/A% 29.77 in 3.0 mi Calm Calm - N/A   Clear
4:15 AM 41.0 °F - - N/A% 29.78 in 2.0 mi Calm Calm - N/A   Clear
4:35 AM 41.0 °F - - N/A% 29.78 in 0.5 mi Calm Calm - N/A Fog Fog
4:55 AM 39.2 °F - - N/A% 29.78 in 0.2 mi Calm Calm - N/A Fog Fog
5:15 AM 41.0 °F - - N/A% 29.79 in 0.2 mi Calm Calm - N/A Fog Fog
5:35 AM 37.4 °F - - N/A% 29.79 in 0.2 mi Calm Calm - N/A Fog Fog
5:55 AM 37.4 °F - - N/A% 29.80 in 0.2 mi Calm Calm - N/A Fog Fog
6:15 AM 37.4 °F - - N/A% 29.80 in 0.5 mi Calm Calm - N/A Fog Fog
6:35 AM 37.4 °F - - N/A% 29.79 in 0.2 mi Calm Calm - N/A Fog Fog
6:55 AM 35.6 °F - - N/A% 29.80 in 0.2 mi Calm Calm - N/A Fog Fog
8:35 AM 37.4 °F - - N/A% 29.83 in 0.2 mi Calm Calm - N/A Fog Fog
8:55 AM 41.0 °F 39.0 °F - N/A% 29.83 in 0.2 mi SE 3.5 mph - N/A Fog Fog
9:15 AM 41.0 °F 39.0 °F - N/A% 29.83 in 0.2 mi SSE 3.5 mph - N/A Fog Fog
9:55 AM 42.8 °F 41.1 °F - N/A% 29.82 in 0.2 mi SSE 3.5 mph - N/A Fog Fog
10:15 AM 44.6 °F 43.1 °F - N/A% 29.81 in 1.5 mi South 3.5 mph - N/A   Overcast
10:35 AM 44.6 °F 41.4 °F - N/A% 29.81 in 1.5 mi South 5.8 mph - N/A   Overcast
10:55 AM 46.4 °F 44.3 °F - N/A% 29.81 in 2.5 mi SSW 4.6 mph - N/A   Overcast
11:15 AM 50.0 °F - - N/A% 29.82 in 5.0 mi SSW 6.9 mph - N/A   Haze
11:35 AM 51.8 °F - 51.8 °F 100% 29.82 in 10.0 mi SW 4.6 mph - N/A   Mostly Cloudy
11:55 AM 51.8 °F - 50.0 °F 94% 29.81 in 10.0 mi SSW 8.1 mph - N/A   Scattered Clouds
12:15 PM 53.6 °F - 46.4 °F 77% 29.81 in 10.0 mi SSW 8.1 mph - N/A   Clear
12:35 PM 53.6 °F - 44.6 °F 72% 29.81 in 10.0 mi SW 9.2 mph 16.1 mph N/A   Clear
12:55 PM 55.4 °F - 44.6 °F 67% 29.80 in 10.0 mi SSW 5.8 mph - N/A   Clear
1:15 PM 55.4 °F - 44.6 °F 67% 29.79 in 10.0 mi SSW 8.1 mph - N/A   Clear
1:35 PM 55.4 °F - 44.6 °F 67% 29.78 in 10.0 mi South 10.4 mph - N/A   Clear
1:55 PM 55.4 °F - 44.6 °F 67% 29.78 in 10.0 mi SSW 10.4 mph - N/A   Clear
2:15 PM 55.4 °F - 44.6 °F 67% 29.78 in 10.0 mi SW 10.4 mph - N/A   Clear
2:35 PM - - - N/A% - - North - - N/A   Unknown
3:15 PM - - - N/A% - - North - - N/A   Unknown
3:35 PM - - - N/A% - - North - - N/A   Unknown
3:55 PM 55.4 °F - 44.6 °F 67% 29.77 in 10.0 mi SSW 6.9 mph - N/A   Unknown
4:15 PM 55.4 °F - 44.6 °F 67% 29.77 in 10.0 mi SSW 9.2 mph - N/A   Scattered Clouds
4:35 PM 55.4 °F - 42.8 °F 63% 29.77 in 10.0 mi SW 9.2 mph - N/A   Clear
4:55 PM 53.6 °F - 44.6 °F 72% 29.78 in 10.0 mi SSW 5.8 mph - N/A   Clear
5:15 PM 53.6 °F - 44.6 °F 72% 29.78 in 10.0 mi SSW 6.9 mph - N/A   Scattered Clouds
5:35 PM 51.8 °F - 44.6 °F 76% 29.78 in 10.0 mi SSW 6.9 mph - N/A   Mostly Cloudy
5:55 PM 51.8 °F - 44.6 °F 76% 29.79 in 10.0 mi SSW 5.8 mph - N/A   Scattered Clouds
6:15 PM 50.0 °F - 44.6 °F 82% 29.79 in 10.0 mi SSW 4.6 mph - N/A   Clear
6:35 PM 50.0 °F - 44.6 °F 82% 29.80 in 10.0 mi SSW 4.6 mph - N/A   Scattered Clouds
6:55 PM 50.0 °F - 44.6 °F 82% 29.81 in 10.0 mi SSW 5.8 mph - N/A   Mostly Cloudy
7:15 PM 50.0 °F - 44.6 °F 82% 29.81 in 10.0 mi South 3.5 mph - N/A   Overcast
7:35 PM 50.0 °F - 44.6 °F 82% 29.82 in 10.0 mi SSW 3.5 mph - N/A   Overcast
7:55 PM 50.0 °F - 44.6 °F 82% 29.82 in 10.0 mi SSW 4.6 mph - N/A   Overcast
8:15 PM 50.0 °F - 44.6 °F 82% 29.82 in 10.0 mi SSW 3.5 mph - N/A   Overcast
8:35 PM 50.0 °F - 44.6 °F 82% 29.82 in 10.0 mi SSW 3.5 mph - N/A   Overcast
8:55 PM 50.0 °F - 44.6 °F 82% 29.82 in 10.0 mi SSW 4.6 mph - N/A   Overcast
9:15 PM 50.0 °F - 44.6 °F 82% 29.81 in 10.0 mi SSW 4.6 mph - N/A   Overcast
9:35 PM 50.0 °F - 44.6 °F 82% 29.81 in 10.0 mi SSW 3.5 mph - N/A   Scattered Clouds
9:55 PM 48.2 °F - 42.8 °F 82% 29.81 in 10.0 mi SW 3.5 mph - N/A   Clear
10:15 PM 48.2 °F - 44.6 °F 87% 29.82 in 10.0 mi SSW 3.5 mph - N/A   Clear
10:35 PM 48.2 °F - 44.6 °F 87% 29.81 in 10.0 mi Calm Calm - N/A   Clear
10:55 PM 46.4 °F - 46.4 °F 100% 29.82 in 10.0 mi Calm Calm - N/A   Clear
11:15 PM 46.4 °F - - N/A% 29.82 in 10.0 mi Calm Calm - N/A   Clear
11:35 PM 46.4 °F - - N/A% 29.82 in 10.0 mi Calm Calm - N/A   Clear
11:55 PM 44.6 °F - - N/A% 29.82 in 10.0 mi Calm Calm - N/A   Clear